Regional Weather Roundup
Issued by NWS

Home | Current Version | Previous Version | Text Only | Print | Product List | Glossary On
Versions: 1 2 3 4 5 6 7 8 9 10 11 12 13 14 15 16 17 18 19 20 21 22 23 24 25 26 27 28 29 30 31 32 33 34 35 36 37 38 39 40 41 42 43 44 45 46 47 48 49 50
137
ASUS43 KLOT 041012
RWRIL

ILLINOIS REGIONAL WEATHER ROUNDUP
NATIONAL WEATHER SERVICE CHICAGO/ROMEOVILLE IL
400 AM CST SUN DEC 04 2016

NOTE: "FAIR" INDICATES FEW OR NO CLOUDS BELOW 12,000 FEET WITH NO
SIGNIFICANT WEATHER AND/OR OBSTRUCTIONS TO VISIBILITY.

* THESE STATIONS ARE NOT UNDER NWS QUALITY CONTROL. THEY ALSO MAY NOT
  REPORT WEATHER SUCH AS PRECIPITATION OR FOG.

ILZ001-002-007-009-015-016-024-041100-
NORTHWEST ILLINOIS

CITY           SKY/WX    TMP DP  RH WIND       PRES   REMARKS
MOLINE         CLOUDY    35  28  75 SE8       30.15F WCI  29
STERLING*      CLOUDY    32  27  81 SE6       30.18F WCI  26
SAVANNA*       FLURRIES  33  28  83 SE9       30.17F WCI  25
$$

ILZ003-004-008-010-011-017-018-041100-
NORTH CENTRAL ILLINOIS

CITY           SKY/WX    TMP DP  RH WIND       PRES   REMARKS
ROCKFORD       CLOUDY    32  27  81 S8        30.20F WCI  25
FREEPORT*      CLOUDY    32  28  85 S6        30.19S WCI  26
ROCHELLE*      CLOUDY    31  28  89 SE6       30.19F WCI  25
DE KALB*       CLOUDY    31  27  86 SE5       30.18F WCI  26
$$

ILZ005-006-012>014-019>023-041100-
NORTHEAST ILLINOIS

CITY           SKY/WX    TMP DP  RH WIND       PRES   REMARKS
CHICAGO-OHARE  CLOUDY    31  25  78 CALM      30.21F
CHICAGO-MIDWAY CLOUDY    33  24  69 CALM      30.22F
AURORA         CLOUDY    32  27  81 E5        30.20F WCI  27
LANSING*       CLOUDY    31  29  92 CALM      30.22F
JOLIET*        CLOUDY    32  30  90 CALM      30.21F
WAUKEGAN       CLOUDY    31  27  85 CALM      30.20F
DUPAGE AIRPORT CLOUDY    31  25  78 CALM      30.20F
KANKAKEE*      CLOUDY    32  28  87 E3        30.22F
WHEELING       CLOUDY    32  25  75 CALM      30.22F
MORRIS*        CLOUDY    32  28  86 CALM      30.20F
ROMEOVILLE*    CLOUDY    31  30  96 E3        30.21F
NORTHERLY ISL    N/A     33  24  70 S3          N/A
$$

LMZ740>746-041100-
SOUTHERN LAKE MICHIGAN

STATION/POSITION SKY/WX   TEMP    WIND        PRES    VSBY  WAVE
                          AIR SEA DIR/SP/G                  HT/PER
                          (F)     (DEG/KT/KT) (MB)    (MI)  (FT/S)
SOUTHERN BUOY              36 48   CALM  /  2 1023.4F         0
HARRISON CRIB              34     190/  7/  8   N/A
BURNHAM HARBOR             33     210/  1/  5   N/A
CALUMET HARBOR             32     200/  2/  3 1022.6F
BURNS HARBOR               33     180/  5/  7 1024.0F
MICHIGAN CITY              33     140/  5/  6   N/A
$$

ILZ025>027-034>036-040-047-049-050-058-095>099-041100-
WEST-CENTRAL ILLINOIS

CITY           SKY/WX    TMP DP  RH WIND       PRES   REMARKS
QUINCY         LGT RAIN  37  34  89 SE6       30.13F FOG     WCI  32
GALESBURG*     CLOUDY    32  29  88 E8        30.15F WCI  25
MACOMB*        CLOUDY    34  32  93 SE8       30.18S WCI  27
JACKSONVILLE*  CLOUDY    35  32  88 SE9       30.14F WCI  28
PITTSFIELD*    LGT RAIN  37  35  94 CALM      30.14F
$$

ILZ028>032-037-038-041>044-048-051>054-059>061-041100-
CENTRAL ILLINOIS

CITY           SKY/WX    TMP DP  RH WIND       PRES   REMARKS
PONTIAC        CLOUDY    32  32  98 E5        30.20F WCI  28
BLOOMINGTON    CLOUDY    31  29  92 E7        30.18F WCI  24
DECATUR        CLOUDY   N/A N/A N/A E8        30.18F
PEORIA         CLOUDY    34  28  79 E7        30.17F WCI  28
LACON*         CLOUDY    32  27  83 SE5       30.18F WCI  27
LINCOLN*       CLOUDY    35  31  87 E6        30.17F WCI  29
SPRINGFIELD    CLOUDY    36  31  82 SE8       30.16F WCI  30
TAYLORVILLE    CLOUDY    34  32  90 E6        30.15F WCI  29
$$

ILZ033-039-045-046-055>057-062-063-041100-
EAST-CENTRAL ILLINOIS

CITY           SKY/WX    TMP DP  RH WIND       PRES   REMARKS
CHAMPAIGN      CLOUDY    33  28  81 E7        30.18F WCI  27
RANTOUL*       CLOUDY    33  31  90 E6        30.18F WCI  28
MATTOON        CLOUDY    34  29  82 E5        30.17F WCI  30
PARIS*         CLOUDY    33  31  92 E5        30.20S WCI  28
$$

ILZ079-100>102-041100-
SOUTHWEST ILLINOIS

CITY           SKY/WX    TMP DP  RH WIND       PRES   REMARKS
ALTON          DRIZZLE   37  32  85 E7        30.14F WCI  31
BELLEVILLE     CLOUDY    38  35  87 E6        30.13F WCI  34
CAHOKIA*       CLOUDY    38  34  85 E6        30.13F WCI  33
SPARTA*        CLOUDY    38  34  86 E6        30.14F WCI  33
$$

ILZ064>066-069>071-074>076-080>082-084>086-088>090-092>094-041100-
SOUTH-CENTRAL ILLINOIS

CITY           SKY/WX    TMP DP  RH WIND       PRES   REMARKS
CARBONDALE     CLOUDY    39  35  86 E7        30.14F WCI  34
CAIRO*         CLOUDY    39  37  92 NE9       30.11F WCI  32
EFFINGHAM*     CLOUDY    36  33  87 E6        30.18F WCI  31
MARION         CLOUDY    39  37  93 E5        30.14F
CENTRALIA*     LGT RAIN  38  33  81 E5        30.14F WCI  35
SALEM*         LGT RAIN  39  31  73 E5        30.15F
METROPOLIS*    CLOUDY    39  36  89 CALM      30.13F
$$

ILZ067-068-072-073-078-083-087-091-041100-
SOUTHEAST ILLINOIS

CITY           SKY/WX    TMP DP  RH WIND       PRES   REMARKS
LAWRENCEVILLE  CLOUDY    38  31  76 E6        30.19F WCI  33
FLORA*         LGT RAIN  38  33  82 E6        30.17F WCI  33
FAIRFIELD*     LGT RAIN  38  33  84 CALM      30.15F
HARRISBURG*    CLOUDY    39  35  86 E6        30.14F WCI  35
ROBINSON*      CLOUDY    35  31  85 E5        30.20F WCI  31
CARMI*         CLOUDY    38  35  88 E7        30.15F WCI  33
$$

ABBREVIATIONS USED IN REMARKS
   TC - TEMPERATURE IN CELSIUS
  WCI - WIND CHILL INDEX
   HX - HEAT INDEX
  VSB - VISIBILITY
$$





USA.gov is the U.S. government's official web portal to all federal, state and local government web resources and services.